User: anonymous   Login
Location: Unspecified
(0.0000°N, 0.0000°E)
Time: 03:15:35
(UTC+00:00)
Language:

deb r/b Ablestar - Orbit

View from above orbital plane
View from above orbital plane
View from above satellite
View from above satellite

Ground track
Ground track

The orbit data is extracted from the following two-line orbital elements,

1 00335U 61015DM  16238.40854926  .00000559  00000-0  31774-3 0  9996
2 00335  66.8412 271.8513 0047394 291.2771  68.3264 14.16566393819598
Epoch (UTC): 25 August 2016 09:48:18
Eccentricity: 0.0047394
inclination: 66.8412°
perigee height: 803 km
apogee height: 871 km
right ascension of ascending node: 271.8513°
argument of perigee: 291.2771°
revolutions per day: 14.16566393
mean anomaly at epoch: 68.3264°
orbit number at epoch: 81959

The dashed part of the orbit path shows where the satellite is in the earth's shadow,  

DLR